Regional Weather Roundup
Issued by NWS

Home | Current Version | Previous Version | Graphics & Text | Print | Product List | Glossary On
Versions: 1 2 3 4 5 6 7 8 9 10 11 12 13 14 15 16 17 18 19 20 21 22 23 24 25 26 27 28 29 30 31 32 33 34 35 36 37 38 39 40 41 42 43 44 45 46 47 48 49 50
000
ASUS43 KDMX 250606
RWRIA

WEATHER ROUNDUP FOR IOWA
NATIONAL WEATHER SERVICE DES MOINES IA
100 AM CDT TUE JUL 25 2017

NOTE: "FAIR" INDICATES FEW OR NO CLOUDS BELOW 12,000 FEET WITH NO
SIGNIFICANT WEATHER AND/OR OBSTRUCTIONS TO VISIBILITY.

* - THESE STATIONS ARE NOT NWS STATIONS...THUS NOT UNDER NWS
QUALITY CONTROL.  THEY ALSO DO NOT REPORT WEATHER SUCH
AS PRECIPITATION OR FOG.

IAZ001>003-012>014-020>022-031>034-043>046-250700-
   NORTHWEST IOWA

CITY           SKY/WX    TMP DP  RH WIND       PRES   REMARKS
CARROLL *      PTCLDY    66  66 100 SE6       30.03R
CHEROKEE *     PTCLDY    70  65  84 SE7       29.99S
DENISON *      CLOUDY    68  64  88 SE5       30.02S
ORANGE CITY *  MOCLDY    72  66  83 SE7       29.97R
SHELDON *      PTCLDY    70  63  78 SE10G18   29.97R
SIOUX CITY     MOCLDY    74  67  78 SE13      29.94F
6HR MIN TEMP:  73; 6HR MAX TEMP:  83;

SPENCER        CLOUDY    70  63  78 SE13      30.00S
6HR MIN TEMP:  69; 6HR MAX TEMP:  81;

STORM LAKE *   PTCLDY    68  64  88 SE14      30.01F
$$

IAZ055>058-069>071-079>083-090>094-250700-
   SOUTHWEST IOWA

CITY           SKY/WX    TMP DP  RH WIND       PRES   REMARKS
ATLANTIC *     CLEAR     70  64  83 SW6       30.02S
AUDUBON *      PTCLDY    66  63  88 CALM      30.04S
CLARINDA *     CLEAR     70  66  88 S6        30.05S
COUNCIL BLFS * CLEAR     72  68  88 SE10      30.01R
CRESTON *      CLEAR     70  64  83 S7        30.07R
HARLAN  *      CLOUDY    70  66  88 S6        30.05R
LAMONI         CLEAR     71  65  81 SE7       30.06S
6HR MIN TEMP:  71; 6HR MAX TEMP:  83;

RED OAK *      CLEAR     70  66  88 CALM      30.02S
SHENANDOAH *     N/A     73  66  78 SE9G17    30.01F
$$

IAZ047>049-059>061-072>074-084-250700-
   CENTRAL IOWA

CITY           SKY/WX    TMP DP  RH WIND       PRES   REMARKS
AMES           CLEAR     67  66  97 SE7       30.06R
6HR MIN TEMP:  67; 6HR MAX TEMP:  78;

ANKENY *       CLEAR     68  64  88 SE9       30.07R
BOONE *        CLEAR     66  64  94 SE12      30.05S
CHARITON *     CLEAR     70  64  83 SE9       30.07S
DES MOINES     CLEAR     71  65  81 SE12      30.05R
6HR MIN TEMP:  71; 6HR MAX TEMP:  82;

GRINNELL*      CLEAR     65  62  91 SE7       30.10R
KNOXVILLE *    CLEAR     68  64  88 SE8       30.06S
MARSHALLTOWN   CLEAR     65  63  93 SE9       30.08R
6HR MIN TEMP:  64; 6HR MAX TEMP:  77;

NEWTON *       CLEAR     66  64  94 SE8       30.09R
PELLA *          N/A     67  64  89 SE8       30.09S
$$

IAZ004>006-015-016-023>025-035-036-250700-
   NORTH CENTRAL IOWA

CITY           SKY/WX    TMP DP  RH WIND       PRES   REMARKS
ALGONA *       CLEAR     66  66 100 SE12G17   30.05R
CLARION *      CLEAR     66  66 100 SE14      30.06R
ESTHERVILLE    CLOUDY    65  63  93 SE9       30.02R
6HR MIN TEMP:  65; 6HR MAX TEMP:  76;

FORT DODGE *   CLEAR     68  63  83 SE8G16    30.05S
MASON CITY     CLEAR     64  62  93 SE10      30.09R
6HR MIN TEMP:  64; 6HR MAX TEMP:  74;

FOREST CITY *    N/A     64  63  94 SE12      30.06R
WEBSTER CITY * CLEAR     66  64  94 SE12G18   30.04R
IOWA FALLS *     N/A     65  63  92 SE8       30.08S
$$

IAZ007>011-017>019-026>030-037>042-050>054-066-250700-
   NORTHEAST IOWA

CITY           SKY/WX    TMP DP  RH WIND       PRES   REMARKS
CEDAR RAPIDS   CLEAR     61  61 100 E6        30.10R
6HR MIN TEMP:  61; 6HR MAX TEMP:  74;

CHARLES CITY * CLEAR     64  63  94 SE7G13    30.09S
DECORAH *      PTCLDY    63  59  88 SE7       30.10S
DUBUQUE        CLEAR     62  58  86 SE6       30.13R
6HR MIN TEMP:  62; 6HR MAX TEMP:  73;

MONTICELLO *   CLEAR     59  59 100 CALM      30.11R
OELWEIN *        N/A    N/A N/A N/A MISG        N/A
WATERLOO       CLEAR     64  60  87 SE6       30.08R
6HR MIN TEMP:  63; 6HR MAX TEMP:  75;

$$

IAZ064-065-067-068-078-250700-
   EAST CENTRAL IOWA

CITY           SKY/WX    TMP DP  RH WIND       PRES   REMARKS
DAVENPORT      CLEAR     62  59  90 E8        30.13R
6HR MIN TEMP:  61; 6HR MAX TEMP:  73;

IOWA CITY      CLEAR     66  62  87 SE3       30.12R
6HR MIN TEMP:  66; 6HR MAX TEMP:  76;

MT. PLEASANT * CLEAR     64  64  99 E3        30.11R
MUSCATINE *    CLEAR     64  61  88 CALM      30.11R
QUAD CITIES    CLEAR     63  59  87 E6        30.11R
6HR MIN TEMP:  63; 6HR MAX TEMP:  74;

$$

IAZ062-063-075>077-085>089-095>099-250700-
   SOUTHEAST IOWA

CITY           SKY/WX    TMP DP  RH WIND       PRES   REMARKS
BURLINGTON     CLEAR     68  64  87 E6        30.10R
6HR MIN TEMP:  68; 6HR MAX TEMP:  76;

FAIRFIELD *    CLEAR     64  63  94 CALM      30.10R
FORT MADISON * CLEAR     66  64  94 E3        30.11R
KEOKUK *       CLEAR     68  64  88 E8        30.09R
OSKALOOSA *      N/A     64  63  94 SE6       30.09S
CENTERVILLE *    N/A     66  64  94 CALM      30.10F
OTTUMWA        CLEAR     66  64  93 SE7       30.09R
6HR MIN TEMP:  65; 6HR MAX TEMP:  81;

WASHINGTON *   CLEAR     63  61  94 SE6       30.12R
$$

ABBREVIATIONS USED IN REMARKS
   TC - TEMPERATURES IN CELSIUS
  WCI - WIND CHILL INDEX
   HX - HEAT INDEX
  VSB - VISIBILITY
$$




USA.gov is the U.S. government's official web portal to all federal, state and local government web resources and services.